Time,TemperatureF,DewpointF,PressureIn,WindDirection,WindDirectionDegrees,WindSpeedMPH,WindSpeedGustMPH,Humidity,HourlyPrecipIn,Conditions,Clouds,dailyrainin,SoftwareType,DateUTC
2013-11-19 00:14:00,45.0,30.0,29.56,NNW,345,0.0,9.0,55,0.00,,,0.00,weatherlink.com 1.10,2013-11-19 05:14:00,
2013-11-19 00:29:00,44.5,29.0,29.55,WSW,253,0.0,10.0,55,0.00,,,0.00,weatherlink.com 1.10,2013-11-19 05:29:00,
2013-11-19 00:45:00,44.0,29.0,29.55,SW,234,0.0,2.0,57,0.00,,,0.00,weatherlink.com 1.10,2013-11-19 05:45:00,
2013-11-19 00:59:00,43.6,29.0,29.55,SW,217,0.0,3.0,56,0.00,,,0.00,weatherlink.com 1.10,2013-11-19 05:59:00,
2013-11-19 01:14:00,43.6,29.0,29.56,West,280,0.0,4.0,56,0.00,,,0.00,weatherlink.com 1.10,2013-11-19 06:14:00,
2013-11-19 01:29:00,43.5,29.0,29.56,SW,232,3.0,4.0,57,0.00,,,0.00,weatherlink.com 1.10,2013-11-19 06:29:00,
2013-11-19 01:44:00,44.3,27.0,29.57,WNW,282,4.0,19.0,52,0.00,,,0.00,weatherlink.com 1.10,2013-11-19 06:44:00,
2013-11-19 01:59:00,43.7,28.0,29.57,SSW,213,2.0,18.0,54,0.00,,,0.00,weatherlink.com 1.10,2013-11-19 06:59:00,
2013-11-19 02:14:00,42.7,26.0,29.57,SW,223,0.0,11.0,52,0.00,,,0.00,weatherlink.com 1.10,2013-11-19 07:14:00,
2013-11-19 02:29:00,42.3,25.0,29.57,South,182,8.0,9.0,50,0.00,,,0.00,weatherlink.com 1.10,2013-11-19 07:29:00,
2013-11-19 02:44:00,41.6,25.0,29.58,West,277,2.0,13.0,51,0.00,,,0.00,weatherlink.com 1.10,2013-11-19 07:44:00,
2013-11-19 03:00:00,41.3,25.0,29.58,North,5,2.0,15.0,53,0.01,,,0.01,weatherlink.com 1.10,2013-11-19 08:00:00,
2013-11-19 03:15:00,41.2,26.0,29.59,WNW,286,0.0,6.0,54,0.01,,,0.01,weatherlink.com 1.10,2013-11-19 08:15:00,
2013-11-19 03:30:00,41.2,26.0,29.60,WSW,240,0.0,9.0,55,0.01,,,0.01,weatherlink.com 1.10,2013-11-19 08:30:00,
2013-11-19 03:45:00,41.0,26.0,29.61,West,281,0.0,3.0,55,0.01,,,0.01,weatherlink.com 1.10,2013-11-19 08:45:00,
2013-11-19 04:00:00,41.0,25.0,29.62,WNW,299,2.0,7.0,53,0.00,,,0.01,weatherlink.com 1.10,2013-11-19 09:00:00,
2013-11-19 04:15:00,40.8,24.0,29.63,WSW,254,4.0,6.0,52,0.00,,,0.01,weatherlink.com 1.10,2013-11-19 09:15:00,
2013-11-19 04:30:00,40.1,24.0,29.65,ENE,59,4.0,17.0,53,0.00,,,0.01,weatherlink.com 1.10,2013-11-19 09:30:00,
2013-11-19 04:45:00,37.8,24.0,29.66,NNE,32,2.0,21.0,57,0.00,,,0.01,weatherlink.com 1.10,2013-11-19 09:45:00,
2013-11-19 05:00:00,36.4,23.0,29.68,ESE,113,3.0,14.0,58,0.00,,,0.01,weatherlink.com 1.10,2013-11-19 10:00:00,
2013-11-19 05:15:00,35.4,21.0,29.69,WNW,294,0.0,16.0,57,0.00,,,0.01,weatherlink.com 1.10,2013-11-19 10:15:00,
2013-11-19 05:30:00,34.8,21.0,29.71,NNE,12,3.0,16.0,57,0.00,,,0.01,weatherlink.com 1.10,2013-11-19 10:30:00,
2013-11-19 05:45:00,34.3,21.0,29.72,NW,319,0.0,11.0,58,0.00,,,0.01,weatherlink.com 1.10,2013-11-19 10:45:00,
2013-11-19 06:00:00,34.2,19.0,29.73,SSW,213,4.0,13.0,54,0.00,,,0.01,weatherlink.com 1.10,2013-11-19 11:00:00,
2013-11-19 06:15:00,33.9,19.0,29.73,WSW,237,11.0,19.0,54,0.00,,,0.01,weatherlink.com 1.10,2013-11-19 11:15:00,
2013-11-19 06:30:00,33.6,18.0,29.75,SSW,205,1.0,16.0,54,0.00,,,0.01,weatherlink.com 1.10,2013-11-19 11:30:00,
2013-11-19 06:45:00,33.4,17.0,29.75,WSW,243,0.0,23.0,52,0.00,,,0.01,weatherlink.com 1.10,2013-11-19 11:45:00,
2013-11-19 07:00:00,33.3,15.0,29.76,WNW,289,10.0,27.0,48,0.00,,,0.01,weatherlink.com 1.10,2013-11-19 12:00:00,
2013-11-19 07:15:00,33.1,16.0,29.77,SW,227,3.0,17.0,50,0.00,,,0.01,weatherlink.com 1.10,2013-11-19 12:15:00,
2013-11-19 07:30:00,33.2,16.0,29.77,WSW,255,4.0,26.0,49,0.00,,,0.01,weatherlink.com 1.10,2013-11-19 12:30:00,
2013-11-19 07:45:00,33.5,17.0,29.79,North,350,1.0,20.0,50,0.00,,,0.01,weatherlink.com 1.10,2013-11-19 12:45:00,
2013-11-19 08:00:00,33.4,18.0,29.80,WNW,301,16.0,18.0,53,0.00,,,0.01,weatherlink.com 1.10,2013-11-19 13:00:00,
2013-11-19 08:31:00,33.2,18.0,29.81,SW,231,3.0,15.0,53,0.00,,,0.01,weatherlink.com 1.10,2013-11-19 13:31:00,
2013-11-19 08:46:00,33.1,17.0,29.83,WNW,288,2.0,24.0,52,0.00,,,0.01,weatherlink.com 1.10,2013-11-19 13:46:00,
2013-11-19 09:01:00,33.2,17.0,29.83,West,277,9.0,21.0,51,0.00,,,0.01,weatherlink.com 1.10,2013-11-19 14:01:00,
2013-11-19 09:16:00,33.2,17.0,29.84,SSW,200,1.0,18.0,52,0.00,,,0.01,weatherlink.com 1.10,2013-11-19 14:16:00,
2013-11-19 09:31:00,33.1,17.0,29.85,West,269,8.0,14.0,51,0.00,,,0.01,weatherlink.com 1.10,2013-11-19 14:31:00,
2013-11-19 09:46:00,33.5,17.0,29.86,West,271,9.0,19.0,52,0.00,,,0.01,weatherlink.com 1.10,2013-11-19 14:46:00,
2013-11-19 10:01:00,33.7,18.0,29.86,WSW,257,3.0,19.0,53,0.00,,,0.01,weatherlink.com 1.10,2013-11-19 15:01:00,
2013-11-19 10:16:00,33.5,18.0,29.87,West,265,4.0,16.0,53,0.00,,,0.01,weatherlink.com 1.10,2013-11-19 15:16:00,
2013-11-19 10:31:00,33.8,18.0,29.87,NW,312,4.0,17.0,53,0.00,,,0.01,weatherlink.com 1.10,2013-11-19 15:31:00,
2013-11-19 10:46:00,34.0,17.0,29.87,West,259,3.0,20.0,51,0.00,,,0.01,weatherlink.com 1.10,2013-11-19 15:46:00,
2013-11-19 11:01:00,33.7,17.0,29.87,West,275,4.0,16.0,51,0.00,,,0.01,weatherlink.com 1.10,2013-11-19 16:01:00,
2013-11-19 11:16:00,33.8,17.0,29.87,WSW,247,4.0,14.0,51,0.00,,,0.01,weatherlink.com 1.10,2013-11-19 16:16:00,
2013-11-19 11:31:00,33.8,17.0,29.87,NNW,339,4.0,13.0,51,0.00,,,0.01,weatherlink.com 1.10,2013-11-19 16:31:00,
2013-11-19 11:46:00,34.6,18.0,29.87,WSW,247,3.0,25.0,50,0.00,,,0.01,weatherlink.com 1.10,2013-11-19 16:46:00,
2013-11-19 12:01:00,34.7,17.0,29.88,NNW,338,6.0,26.0,48,0.00,,,0.01,weatherlink.com 1.10,2013-11-19 17:01:00,
2013-11-19 12:16:00,35.0,17.0,29.89,North,11,7.0,23.0,49,0.00,,,0.01,weatherlink.com 1.10,2013-11-19 17:16:00,
2013-11-19 12:31:00,35.3,17.0,29.89,WNW,296,3.0,15.0,47,0.00,,,0.01,weatherlink.com 1.10,2013-11-19 17:31:00,
2013-11-19 12:46:00,34.7,17.0,29.91,SSW,210,3.0,22.0,48,0.00,,,0.01,weatherlink.com 1.10,2013-11-19 17:46:00,
2013-11-19 13:01:00,34.4,16.0,29.91,North,355,0.0,19.0,47,0.01,,,0.02,weatherlink.com 1.10,2013-11-19 18:01:00,
2013-11-19 13:16:00,34.0,17.0,29.93,North,5,2.0,19.0,49,0.01,,,0.02,weatherlink.com 1.10,2013-11-19 18:16:00,
2013-11-19 13:31:00,33.9,17.0,29.93,West,264,1.0,23.0,50,0.01,,,0.02,weatherlink.com 1.10,2013-11-19 18:31:00,
2013-11-19 13:46:00,35.1,17.0,29.93,WNW,298,4.0,17.0,47,0.01,,,0.02,weatherlink.com 1.10,2013-11-19 18:46:00,
2013-11-19 14:01:00,35.5,17.0,29.93,North,9,1.0,15.0,48,0.00,,,0.02,weatherlink.com 1.10,2013-11-19 19:01:00,
2013-11-19 14:16:00,35.2,17.0,29.94,WSW,242,4.0,15.0,47,0.00,,,0.02,weatherlink.com 1.10,2013-11-19 19:16:00,
2013-11-19 14:31:00,34.3,17.0,29.94,West,262,0.0,14.0,49,0.00,,,0.02,weatherlink.com 1.10,2013-11-19 19:31:00,
2013-11-19 14:46:00,33.3,16.0,29.95,SSW,208,3.0,10.0,50,0.00,,,0.02,weatherlink.com 1.10,2013-11-19 19:46:00,
2013-11-19 15:01:00,33.0,16.0,29.95,NNE,16,2.0,15.0,50,0.00,,,0.02,weatherlink.com 1.10,2013-11-19 20:01:00,
2013-11-19 15:16:00,33.2,16.0,29.96,West,275,8.0,15.0,50,0.00,,,0.02,weatherlink.com 1.10,2013-11-19 20:16:00,
2013-11-19 15:31:00,33.1,16.0,29.98,WNW,303,0.0,15.0,50,0.00,,,0.02,weatherlink.com 1.10,2013-11-19 20:31:00,
2013-11-19 15:46:00,32.8,16.0,29.99,NE,35,1.0,7.0,51,0.00,,,0.02,weatherlink.com 1.10,2013-11-19 20:46:00,
2013-11-19 16:01:00,32.3,16.0,30.00,NW,311,1.0,11.0,52,0.00,,,0.02,weatherlink.com 1.10,2013-11-19 21:01:00,
2013-11-19 16:16:00,31.9,16.0,30.01,WSW,255,2.0,10.0,52,0.00,,,0.02,weatherlink.com 1.10,2013-11-19 21:16:00,
2013-11-19 16:31:00,31.5,16.0,30.02,West,271,0.0,10.0,54,0.00,,,0.02,weatherlink.com 1.10,2013-11-19 21:31:00,
2013-11-19 16:47:00,31.4,16.0,30.03,WNW,302,4.0,8.0,53,0.00,,,0.02,weatherlink.com 1.10,2013-11-19 21:47:00,
2013-11-19 17:02:00,31.5,16.0,30.03,WNW,288,1.0,11.0,53,0.00,,,0.02,weatherlink.com 1.10,2013-11-19 22:02:00,
2013-11-19 17:17:00,31.7,16.0,30.05,SW,230,3.0,16.0,53,0.00,,,0.02,weatherlink.com 1.10,2013-11-19 22:17:00,
2013-11-19 17:32:00,31.4,16.0,30.05,WNW,290,3.0,12.0,53,0.00,,,0.02,weatherlink.com 1.10,2013-11-19 22:32:00,
2013-11-19 17:47:00,31.5,16.0,30.06,NW,312,0.0,20.0,53,0.00,,,0.02,weatherlink.com 1.10,2013-11-19 22:47:00,
2013-11-19 18:02:00,31.0,16.0,30.07,WNW,282,10.0,12.0,55,0.00,,,0.02,weatherlink.com 1.10,2013-11-19 23:02:00,
2013-11-19 18:17:00,31.1,17.0,30.08,WNW,284,13.0,17.0,55,0.00,,,0.02,weatherlink.com 1.10,2013-11-19 23:17:00,
2013-11-19 18:32:00,31.0,16.0,30.08,West,271,3.0,16.0,55,0.00,,,0.02,weatherlink.com 1.10,2013-11-19 23:32:00,
2013-11-19 18:47:00,30.9,16.0,30.09,NNE,24,3.0,13.0,55,0.00,,,0.02,weatherlink.com 1.10,2013-11-19 23:47:00,
2013-11-19 19:02:00,30.7,16.0,30.09,West,269,7.0,15.0,55,0.00,,,0.02,weatherlink.com 1.10,2013-11-20 00:02:00,
2013-11-19 19:17:00,30.7,16.0,30.11,North,360,3.0,8.0,55,0.01,,,0.03,weatherlink.com 1.10,2013-11-20 00:17:00,
2013-11-19 19:32:00,30.7,16.0,30.11,East,80,1.0,22.0,55,0.01,,,0.03,weatherlink.com 1.10,2013-11-20 00:32:00,
2013-11-19 19:47:00,30.5,16.0,30.13,SW,224,2.0,14.0,55,0.01,,,0.03,weatherlink.com 1.10,2013-11-20 00:47:00,
2013-11-19 20:02:00,30.7,16.0,30.14,NE,43,1.0,10.0,55,0.01,,,0.03,weatherlink.com 1.10,2013-11-20 01:02:00,
2013-11-19 20:17:00,30.8,16.0,30.15,NNW,333,0.0,10.0,55,0.00,,,0.03,weatherlink.com 1.10,2013-11-20 01:17:00,
2013-11-19 20:32:00,30.6,16.0,30.15,North,355,1.0,12.0,56,0.00,,,0.03,weatherlink.com 1.10,2013-11-20 01:32:00,
2013-11-19 20:47:00,30.7,16.0,30.17,WSW,258,0.0,10.0,54,0.00,,,0.03,weatherlink.com 1.10,2013-11-20 01:47:00,
2013-11-19 21:02:00,30.8,15.0,30.18,West,275,0.0,9.0,53,0.00,,,0.03,weatherlink.com 1.10,2013-11-20 02:02:00,
2013-11-19 21:17:00,30.5,16.0,30.18,West,278,0.0,5.0,54,0.00,,,0.03,weatherlink.com 1.10,2013-11-20 02:17:00,
2013-11-19 21:32:00,30.3,15.0,30.19,West,261,1.0,7.0,54,0.00,,,0.03,weatherlink.com 1.10,2013-11-20 02:32:00,
2013-11-19 21:47:00,30.0,16.0,30.19,NNE,23,0.0,3.0,56,0.00,,,0.03,weatherlink.com 1.10,2013-11-20 02:47:00,
2013-11-19 22:02:00,29.9,16.0,30.20,SSW,211,0.0,2.0,56,0.00,,,0.03,weatherlink.com 1.10,2013-11-20 03:02:00,
2013-11-19 22:17:00,29.3,17.0,30.20,ENE,74,0.0,2.0,61,0.00,,,0.03,weatherlink.com 1.10,2013-11-20 03:17:00,
2013-11-19 22:32:00,28.1,16.0,30.20,ENE,73,0.0,0.0,62,0.00,,,0.03,weatherlink.com 1.10,2013-11-20 03:32:00,
2013-11-19 22:47:00,27.5,17.0,30.21,SW,219,0.0,1.0,64,0.00,,,0.03,weatherlink.com 1.10,2013-11-20 03:47:00,
2013-11-19 23:02:00,27.9,16.0,30.21,SW,219,0.0,0.0,62,0.00,,,0.03,weatherlink.com 1.10,2013-11-20 04:02:00,
2013-11-19 23:17:00,28.3,17.0,30.22,SW,219,0.0,0.0,63,0.00,,,0.03,weatherlink.com 1.10,2013-11-20 04:17:00,
2013-11-19 23:32:00,28.1,18.0,30.23,SW,219,0.0,0.0,66,0.00,,,0.03,weatherlink.com 1.10,2013-11-20 04:32:00,
2013-11-19 23:48:00,28.3,17.0,30.24,East,88,0.0,0.0,64,0.00,,,0.03,weatherlink.com 1.10,2013-11-20 04:48:00,